Location: Berlin
(52.5171°N, 13.3759°E)
Time: 17:17:05
(UTC+01:00)

OTV 5 (USA 277) - Visible Passes

Search period start: 19 February 2018 00:00
Search period end: 01 March 2018 00:00
Orbit: 404 x 417 km, 43.0° (Epoch: 07 September)

Date Brightness Start Highest point End Pass type
(mag) Time Alt. Az. Time Alt. Az. Time Alt. Az.
23 Feb ? 05:54:18 10° S 05:55:32 12° SSE 05:56:47 10° SE visible
25 Feb ? 05:48:19 10° SSW 05:50:17 15° S 05:52:16 10° SE visible
26 Feb ? 04:59:06 13° S 04:59:26 14° SSE 05:01:09 10° SE visible
27 Feb ? 05:43:07 11° SW 05:45:05 16° S 05:47:12 10° SE visible
28 Feb ? 04:54:23 16° S 04:54:23 16° S 04:56:18 10° SE visible
